Simultaneous Nadir Overpasses (SNOs) Predictions

Prediction of SNOs between GOES-15 and LANDSAT-8 Satellite Orbit:

Table of predicted SNOs for the next 14.0 days since TLE Epoch: 8/14/2021
Index Date Time (GOES-15) GOES-15 Lat,Lon LANDSAT-8 Lat,Lon Distance(km) Time Diff (sec)
1 08/14/2021 18:42:53 0.01,-128.13 -0.05,-127.94 22.41 80
2 08/16/2021 18:30:42 0.01,-128.16 -0.66,-124.98 361.27 80
3 08/17/2021 06:54:46 -0.04,-128.25 -0.47,-130.17 218.67 80
4 08/19/2021 06:39:56 -0.03,-128.27 0.21,-127.22 119.29 80
5 08/19/2021 19:03:51 0.06,-128.18 0.93,-132.37 475.30 80
6 08/21/2021 06:27:45 -0.02,-128.28 0.82,-124.26 457.03 80
7 08/21/2021 18:51:40 0.06,-128.20 0.31,-129.41 137.45 80
8 08/23/2021 18:36:49 0.04,-128.22 -0.30,-126.45 200.43 80
9 08/24/2021 07:00:54 -0.07,-128.31 -0.76,-131.65 378.88 80
10 08/26/2021 06:48:43 -0.07,-128.33 -0.14,-128.69 41.12 80
